Location: Dumbr?vi?a
(45.8833°N, 22.7000°E)
Time: 17:11:52
(UTC+00:00)

SJ-6B - Pass Details

Date: 03 March 2021
Orbit: 508 x 581 km, 97.6° (Epoch: 11 April)

Event Time Altitude Azimuth Distance (km) Brightness Sun altitude
Exits shadow 17:47:19 28° 121° (ESE) 1,083 3.8 -16.2°
Maximum altitude 17:48:54 42° 71° (ENE) 829 3.3 -16.5°
Drops below altitude 10° 17:52:45 10° 1° (N) 1,876 5.6 -17.1°
Sets 17:54:57 0° 354° (N) 2,767 6.6 -17.5°
